This is the latest recevied weather packets stored in our database for station/object W4SNA-2. If no packets are shown the sender has not sent any weather packets the latest 1 day(s).
| Time | Temp. | Humidity | Pressure | Rain* | Wind** | Luminosity | Snow |
|---|---|---|---|---|---|---|---|
| 1778097579 | 17.22° C | 93% | 1014 hPa | 0 mm | - | - | - |
| 1778097278 | 17.22° C | 94% | 1014 hPa | 0 mm | - | - | - |
| 1778096678 | 16.67° C | 95% | 1013.8 hPa | 0 mm | - | - | - |
| 1778096078 | 16.67° C | 95% | 1013.7 hPa | 0 mm | - | - | - |
| 1778094878 | 16.11° C | 96% | 1013.9 hPa | 0 mm | - | - | - |
| 1778094281 | 16.11° C | 97% | 1013.9 hPa | 0 mm | - | - | - |
| 1778093737 | 15.56° C | 97% | 1013.5 hPa | 0 mm | - | - | - |
| 1778093437 | 15.56° C | 97% | 1013.6 hPa | 0 mm | - | - | - |
| 1778092539 | 15.56° C | 98% | 1013.3 hPa | 0.25 mm | - | - | - |
| 1778092237 | 15° C | 98% | 1013.5 hPa | 0.25 mm | - | - | - |
| 1778091637 | 15.56° C | 99% | 1013.8 hPa | 0.51 mm | - | - | - |
| 1778091337 | 15° C | 98% | 1013.6 hPa | 0.51 mm | - | - | - |
| 1778091037 | 15° C | 98% | 1013.4 hPa | 0.51 mm | - | - | - |
| 1778090737 | 15° C | 98% | 1013.5 hPa | 0.51 mm | - | - | - |
| 1778090437 | 14.44° C | 98% | 1013.7 hPa | 0.51 mm | - | - | - |
| 1778090137 | 14.44° C | 98% | 1014.2 hPa | 0.51 mm | - | - | - |
| 1778089207 | 14.44° C | 97% | 1015.4 hPa | 0.25 mm | - | - | - |
| 1778087406 | 14.44° C | 94% | 1015.8 hPa | 0 mm | - | - | - |
| 1778085007 | 14.44° C | 94% | 1015.6 hPa | 0.25 mm | - | - | - |
| 1778081688 | 13.89° C | 94% | 1014.7 hPa | 0 mm | - | - | - |
| 1778079115 | 14.44° C | 90% | 1015 hPa | 0 mm | - | - | - |
| 1778078846 | 14.44° C | 89% | 1014.9 hPa | 0 mm | - | - | - |
| 1778075814 | 14.44° C | 89% | 1014.7 hPa | 0 mm | - | - | - |
| 1778075515 | 14.44° C | 89% | 1014.7 hPa | 0 mm | - | - | - |
| 1778075214 | 14.44° C | 88% | 1014.8 hPa | 0 mm | - | - | - |
* Rain latest hour (hover to see other rain measurements)
** Current wind speed in m/s (hover to see current wind gust speed)